Charlottesville, VA

12:31 AM EDT on September 21, 2017 (GMT -0400)
Charlottesville-Albemarle

Weather History for KCHO - June, 2013

Change the Weather History Date:

Saturday, June 22, 2013

  Actual Average Record
Temperature  
Mean Temperature 72 °F 74 °F  
Max Temperature 85 °F 85 °F 101 °F (1933)
Min Temperature 59 °F 63 °F 46 °F (1992)
Degree Days  
Heating Degree Days 0 0  
Month to date heating degree days 2 8  
Since 1 June heating degree days 2 8  
Since 1 July heating degree days 4207 4441  
Cooling Degree Days 7 9  
Month to date cooling degree days 145 143  
Year to date cooling degree days 292 229  
Since 1 June cooling degree days 145 143  
Growing Degree Days 22 (Base 50)    
Moisture  
Dew Point 64 °F    
Average Humidity 71    
Maximum Humidity 93    
Minimum Humidity 48    
Precipitation  
Precipitation 0.00 in 0.10 in 0.45 in (2012)
Month to date precipitation 6.78 2.85  
Year to date precipitation 23.41 19.32  
Sea Level Pressure  
Sea Level Pressure 30.22 in    
Wind  
Wind Speed 4 mph (South)    
Max Wind Speed 16 mph    
Max Gust Speed 21 mph    
Visibility 10 miles    
Events      
T = Trace of Precipitation, MM = Missing Value Source: NWS Daily Summary

Daily Weather History Graph

Daily Weather History Graph

Search for Another Location

Airport or City:

Trip Planner

Search our weather history database for the weather conditions in past years. The results will help you decide how hot, cold, wet, or windy it might be!

Date:

Astronomy

Jun. 22, 2013 Rise Set
Actual Time 5:51 AM EDT 8:40 PM EDT
Civil Twilight 5:19 AM EDT 9:12 PM EDT
Nautical Twilight 4:40 AM EDT 9:51 PM EDT
Astronomical Twilight 3:54 AM EDT 10:36 PM EDT
Moon 7:54 PM EDT (6/22) 5:01 AM EDT (6/22)
Length of Visible Light 15h 52m
Length of Day
14h 49m
Waxing Gibbous, 99% of the Moon is Illuminated
Jun 22
Waxing Gibbous
Jun 23
Full
Jun 30
Last Quarter
Jul 8
New
Jul 15
First Quarter

Hourly Weather History & Observations

Time (EDT) Temp. Heat Index Dew Point Humidity Pressure Visibility Wind Dir Wind Speed Gust Speed Precip Events Conditions
12:53 AM 64.9 °F - 57.9 °F 78% 30.24 in 10.0 mi SSW 4.6 mph - N/A   Clear
1:53 AM 63.0 °F - 60.1 °F 90% 30.24 in 10.0 mi Calm Calm - N/A   Clear
2:53 AM 62.1 °F - 59.0 °F 90% 30.25 in 10.0 mi Calm Calm - N/A   Clear
3:53 AM 60.1 °F - 57.9 °F 93% 30.25 in 9.0 mi Calm Calm - N/A   Partly Cloudy
4:53 AM 62.1 °F - 57.0 °F 84% 30.25 in 10.0 mi Calm Calm - N/A   Scattered Clouds
5:53 AM 60.1 °F - 57.9 °F 93% 30.25 in 6.0 mi West 4.6 mph - N/A   Clear
6:53 AM 62.1 °F - 57.9 °F 86% 30.25 in 10.0 mi Calm Calm - N/A   Partly Cloudy
7:09 AM 62.6 °F - 59.0 °F 88% 30.27 in 10.0 mi Calm Calm - N/A   Mostly Cloudy
7:20 AM 62.6 °F - 60.8 °F 94% 30.26 in 10.0 mi Calm Calm - N/A   Overcast
7:53 AM 64.9 °F - 61.0 °F 87% 30.25 in 10.0 mi NW 3.5 mph - N/A   Overcast
8:53 AM 69.1 °F - 64.0 °F 84% 30.24 in 10.0 mi SSE 5.8 mph - N/A   Overcast
9:41 AM 71.6 °F - 64.4 °F 78% 30.26 in 10.0 mi Variable 3.5 mph - N/A   Overcast
9:53 AM 72.0 °F - 64.9 °F 78% 30.24 in 10.0 mi SSW 4.6 mph - N/A   Overcast
10:45 AM 75.2 °F - 66.2 °F 73% 30.24 in 10.0 mi Calm Calm - N/A   Scattered Clouds
10:53 AM 75.9 °F - 66.0 °F 71% 30.22 in 10.0 mi SW 4.6 mph - N/A   Partly Cloudy
11:53 AM 78.1 °F - 66.0 °F 66% 30.24 in 10.0 mi South 5.8 mph - N/A   Scattered Clouds
12:50 PM 78.8 °F - 64.4 °F 61% 30.25 in 10.0 mi Calm Calm - N/A   Overcast
12:53 PM 78.1 °F - 64.9 °F 64% 30.24 in 10.0 mi Calm Calm - N/A   Overcast
1:04 PM 78.8 °F - 66.2 °F 65% 30.26 in 10.0 mi Variable 4.6 mph - N/A   Overcast
1:53 PM 80.1 °F 82.1 °F 66.0 °F 62% 30.23 in 10.0 mi SE 9.2 mph - N/A   Clear
2:53 PM 81.0 °F 82.7 °F 64.9 °F 58% 30.20 in 10.0 mi South 5.8 mph - N/A   Clear
3:53 PM 82.9 °F 84.4 °F 64.0 °F 53% 30.18 in 10.0 mi South 4.6 mph - N/A   Partly Cloudy
4:53 PM 84.9 °F 85.9 °F 63.0 °F 48% 30.15 in 10.0 mi Calm Calm - N/A   Clear
5:53 PM 84.9 °F 86.6 °F 64.9 °F 51% 30.13 in 10.0 mi SE 8.1 mph - N/A   Scattered Clouds
6:53 PM 82.0 °F 84.5 °F 66.9 °F 60% 30.14 in 10.0 mi SSE 11.5 mph 20.7 mph N/A   Mostly Cloudy
7:53 PM 77.0 °F - 66.9 °F 71% 30.15 in 10.0 mi SE 8.1 mph - N/A   Partly Cloudy
8:53 PM 75.0 °F - 66.0 °F 73% 30.16 in 10.0 mi SSE 5.8 mph - N/A   Clear
9:36 PM 73.4 °F - 66.2 °F 78% 30.19 in 10.0 mi SSE 3.5 mph - N/A   Mostly Cloudy
9:53 PM 73.9 °F - 66.9 °F 79% 30.18 in 10.0 mi Calm Calm - N/A   Overcast
10:53 PM 73.0 °F - 68.0 °F 84% 30.19 in 10.0 mi SSE 4.6 mph - N/A   Overcast
11:13 PM 71.6 °F - 66.2 °F 83% 30.21 in 10.0 mi SSE 6.9 mph - N/A   Mostly Cloudy
11:53 PM 71.1 °F - 66.9 °F 87% 30.20 in 10.0 mi Calm Calm - N/A   Scattered Clouds